Showing default

BEIDOU 3M15, 43647

Orbit data source: Space-Track

BEIDOU 3M15, 43647 is a payload satellite owned by CNSA (CN) in MEO that was launched on Mon, 15 Oct 2018 UTC via a CHANG ZHENG 3B/YZ-1 launch vehicle from the Xichang Space Center, China (XSC). Payloads include a variety of satellites, spacecraft, and rockets equipped with specific instruments for various scientific and technological missions. These include communications satellites like Starlink; space stations such as the ISS; scientific satellites like the Hubble; Earth observation satellites from companies like Planet Labs, Umbra, and HawkEye 360; GPS; miniature CubeSats for education and research; and military/defense satellites.

Loading next visibility...
BEIDOU 3M15 details
Identifier
43647, 2018-078A
Orbit
MEO
Last TLE update1 day ago
Origin
Flag of CNCNSA (CN / PRC)
ManufacturerSECM
MissionOperational Defense Navigation
Bus & MotorBD-3M/SAR, Unknown motor
Mass1,014 kg wet, ~850 kg dry
Launch date (UTC)
2018-10-15 (6 years ago)
Launch vehicle
CHANG ZHENG 3B/YZ-1
Launch site
Xichang Space Center, China (XSC)
Object type
Payload
Rocket body
Debris
Shape & HBRBox + 2 Pan, 10 m
Radar Cross Section8.984 m², Large (>1 m²)

Expand to show TLE details & history

TLE from 1 day ago
0 BEIDOU 3M15
1 43647U 18078A   25017.54922528 -.00000095  00000-0  00000-0 0  9995
2 43647  54.5464 317.9985 0007785  13.4229 346.6104  1.86232421 42553
Epoch: 2025-01-17T13:10Z
Definitive object data (Epoch: 2025-01-17T13:10:53.064Z)
Latitude-0.00004°
Longitude3.05543°
Altitude21,507.021 km
Speed3.782 km/s
True Right ascension21h 11m 57s
True Declination0° 00' 00"
Sunlit
Object was in daylight at TLE epoch
Visualization TLE readout
Latitude-53.47629°
Longitude-70.63256°
Altitude21,548.848 km
Speed3.778 km/s
Apparent Right ascension15h 45m 10s
Apparent Declination-51° 52' 58"
Sunlit
Object is in daylight
Visualization observer readout
Local Sidereal Time01:52:18
Azimuth228.92° WSW
Elevation-67.222°
Doppler factor1
Orbital elements
Apogee altitude21,549.659 km
Perigee altitude21,506.209 km
Semi-major axis27,906.071 km
Eccentricity0.0007785
Inclination54.5464°
RAAN317.9985°
Arg. of periapsis13.4229°
True anomaly346.58972°
Mean anomaly346.6104°
Eccentric anomaly346.60006°
Mean motion0.46558 °/min
BSTARUnknown
Orbital period773.23 mins
Loading maneuver chart data...
Loading historical data...
Loading historical data...
Loading historical data...
Loading historical data...
Loading historical data...
Loading historical data...
Loading historical data...
Other satellites on launch #78 in the year 2018 (2018-10-15 UTC)

BEIDOU 3M15 Visibility forecast

Observer location: undefined°, undefined

Span
Click to sort rows by Start time (UTC) header in descending order
Start Az.
Max El. time (UTC)
Max El. Az.
Max El.
End time (UTC)
End Az.
307 mins2025-01-19 06:07:03.602Z312.604° NW2025-01-19 08:41:03.602Z271.541° WNW38.742°2025-01-19 11:14:03.602Z208.839° SW
229 mins2025-01-19 16:28:03.602Z120.685° SE2025-01-19 18:25:03.602Z73.973° E28.615°2025-01-19 20:17:03.602Z38.648° NE
|